Location: Chin
(49.7667°N, 112.4500°W)
Time: 11:40:40
(UTC+00:00)

Envisat - Pass Details

Date: 02 December 2021
Orbit: 764 x 766 km, 98.2° (Epoch: 25 January)

Event Time Altitude Azimuth Distance (km) Brightness Sun altitude
Rises 13:25:11 0° 9° (N) 3,247 6.2 -15.7°
Reaches altitude 10° 13:27:36 10° 2° (N) 2,316 5.3 -15.4°
Maximum altitude 13:32:23 42° 293° (WNW) 1,085 3.3 -14.6°
Drops below altitude 10° 13:37:08 10° 224° (SW) 2,300 5.2 -13.9°
Sets 13:39:31 0° 217° (SW) 3,222 6.0 -13.5°
